Location: Salillas
(41.9950°N, 0.2228°W)
Time: 09:16:26
(UTC+00:00)

STARLINK-1089 - Pass Details

Date: 29 March 2020
Orbit: 548 x 551 km, 53.0° (Epoch: 04 June)

Event Time Altitude Azimuth Distance (km) Brightness Sun altitude
Rises 19:22:02 0° 302° (WNW) 2,740 8.8 -11.5°
Reaches altitude 10° 19:24:22 10° 296° (WNW) 1,841 7.8 -11.9°
Maximum altitude 19:28:20 43° 225° (SW) 785 4.6 -12.6°
Enters shadow 19:32:06 11° 154° (SSE) 1,764 5.8 -13.3°
